User: anonymous   Login
Location: ROBOsky.com Wild Flower Ridge Observatory
(43.9736°N, 79.9739°W)
Time: 16:22:47
(UTC-05:00)
Language:

Cosmos 1190 Rocket - Orbit

View from above orbital plane
View from above orbital plane
View from above satellite
View from above satellite

Ground track
Ground track

The orbit data is extracted from the following two-line orbital elements,

1 11870U 80056B   17324.38965249 -.00000005  00000-0  72523-5 0  9999
2 11870  74.0524 280.8101 0016811 199.2984 160.7535 14.36868717957245
Epoch (UTC): 20 November 2017 09:21:05
Eccentricity: 0.0016811
inclination: 74.0524°
perigee height: 757 km
apogee height: 781 km
right ascension of ascending node: 280.8101°
argument of perigee: 199.2984°
revolutions per day: 14.36868717
mean anomaly at epoch: 160.7535°
orbit number at epoch: 95724

The dashed part of the orbit path shows where the satellite is in the earth's shadow,  

DLR